Regional Weather Roundup
Issued by NWS

Home | Current Version | Previous Version | Text Only | Print | Product List | Glossary On
Versions: 1 2 3 4 5 6 7 8 9 10 11 12 13 14 15 16 17 18 19 20 21 22 23 24 25 26 27 28 29 30 31 32 33 34 35 36 37 38 39 40 41 42 43 44 45 46 47 48 49 50
000
ASUS42 KTBW 300917
RWRFL
FLORIDA REGIONAL WEATHER ROUNDUP
NATIONAL WEATHER SERVICE TAMPA BAY RUSKIN FL
500 AM EDT THU JUL 30 2015

NOTE: "FAIR" INDICATES FEW OR NO CLOUDS BELOW 12,000 FEET WITH NO
SIGNIFICANT WEATHER AND/OR OBSTRUCTIONS TO VISIBILITY.


FLZ001>010-012>015-112-114-115-301000-
PANHANDLE FLORIDA

CITY           SKY/WX    TMP DP  RH WIND       PRES   REMARKS
PENSACOLA      CLEAR     77  74  90 NW10      29.94S
PENSACOLA NAS  CLEAR     78  74  87 NW6       29.94R
MILTON NAS     CLEAR     77  74  90 NW5       29.94
CRESTVIEW      PTCLDY    76  76 100 CALM      29.95S FOG
DUKE FIELD     FAIR      77  75  93 NW3       29.93R
VALPARAISO     MOCLDY    78  75  90 CALM      29.93S
MARY ESTHER    PTCLDY    77  74  90 N3        29.92S
TRI COUNTY     FAIR      76  75  97 S3        29.93F
PANAMA CITY    FAIR      78  76  93 CALM      29.92S
TYNDALL AFB    MOCLDY    79  77  94 CALM      29.93R FOG
APALACHICOLA   MOCLDY    80  77  90 CALM      29.92F

STATION/POSITION SKY/WX   TEMP    WIND        PRES    WAVE   SWELL
                          AIR SEA DIR/SP/G            HT/PER HT/PER
                          (F)     (DEG/KT/KT) (MB)    (FT/S) (FT/S)
30.1N   87.6W              82 85  340/ 12/ 14 1013.0F   1/ 3
29.2N   88.2W              86 87  340/ 12/ 14 1014.3F   2/ 3
28.8N   86.0W              84 87  290/ 10/ 14 1014.0F   2/ 4
PANAMA CITY BEAC           79                 1013.3
CAPE SAN BLAS    NOT AVBL
TOWER C                    83     220/ 12/ 13 1013.5F
28.5N   84.5W              83 85  230/ 10/ 12 1014.1F   2/ 4   2/ 5

$$
FLZ011-016>038-118-127-128-134-139-239-301000-
NORTH FLORIDA

CITY           SKY/WX    TMP DP  RH WIND       PRES   REMARKS
MARIANNA       PTCLDY    76  76 100 CALM      29.92F
TALLAHASSEE    PTCLDY    77  75  93 SE3       29.94S
PERRY          MOCLDY    74  74 100 CALM      29.95S FOG
CROSS CITY       N/A     75  74  96 CALM      29.94F
LAKE CITY      FOG       72  72 100 SW3       29.94S VSB 1/2
GAINESVILLE    CLEAR     73  72  96 CALM      29.94F
MAYPORT NAS    CLEAR     76  74  93 W3        29.92F
JACKSONVILLE   PTCLDY    72  71  97 SE5       29.92S
JAX NAS        PTCLDY    79  73  82 SW6       29.94R
JAX CRAIG      CLEAR     74  71  91 CALM      29.93S
JAX CECIL      MOCLDY    72  72 100 CALM      29.94S FOG
FERNANDINA BEA FAIR      77  73  88 CALM      29.92R
ST AUGUSTINE   CLEAR     74  72  93 SW5       29.94F

STATION/POSITION SKY/WX   TEMP    WIND        PRES    WAVE   SWELL
                          AIR SEA DIR/SP/G            HT/PER HT/PER
                          (F)     (DEG/KT/KT) (MB)    (FT/S) (FT/S)
SHELL POINT                80     280/  4/  5   N/A
KEATON BEACH               76      70/  3/  3 1014.0F
CEDAR KEY                  80      30/  2/  3 1014.3F
FERNANDINA                 77                 1012.6
30.7N   81.3W                 83                N/A     2/ 6
MAYPORT                    77                 1013.8
31.4N   80.9W              81 82  340/ 10/ 14 1012.8F   2/ 5   2/ 5
ST AUGUSTINE               74 81  260/  5/  6 1014.3F

$$
FLZ040-043>046-052-053-057-058-063-144-301000-
INTERIOR CENTRAL FLORIDA

CITY           SKY/WX    TMP DP  RH WIND       PRES   REMARKS
OCALA          CLEAR     72  72 100 CALM      29.96S
THE VILLAGES     N/A     75  75 100 CALM      29.86F
LEESBURG       MOCLDY    75  74  96 CALM      29.97S
SANFORD        PTCLDY    75  73  93 SW5       29.95F
ORLANDO EXEC   PTCLDY    76  76 100 SW3       29.96F
ORLANDO INTL   MOCLDY    75  75 100 SW3       29.97S
WINTER HAVEN   CLEAR     77  75  93 S3        29.98S
LAKELAND       CLEAR     73  73 100 CALM      29.97F
BARTOW         FAIR      73 N/A N/A CALM      29.98F FOG
OKEECHOBEE       N/A     73  73 100 SW5       29.98F

$$
FLZ041-047-054-059-064-141-147-301000-
EAST CENTRAL FLORIDA

CITY           SKY/WX    TMP DP  RH WIND       PRES   REMARKS
DAYTONA BEACH  PTCLDY    74  72  93 W6        29.94F
DELAND           N/A     73  73 100 CALM      29.96F
JFK SPACE CTR  CLEAR     75  73  91 W5        29.95S
CAPE CANAVERAL CLEAR     77  74  89 W2        29.95S
PATRICK AFB    CLEAR     78  75  92 W8        29.95F
MELBOURNE      PTCLDY    76  75  97 W6        29.96F
VERO BEACH     PTCLDY    77  74  90 SW7       29.97F
FT PIERCE      MOCLDY    77  75  93 SW5       29.97S
STUART           N/A     75  73  94 SW5       29.99S

STATION/POSITION SKY/WX   TEMP    WIND        PRES    WAVE   SWELL
                          AIR SEA DIR/SP/G            HT/PER HT/PER
                          (F)     (DEG/KT/KT) (MB)    (FT/S) (FT/S)
28.5N   80.2W              78 81  270/ 14/ 16 1014.3F
28.9N   78.5W              83 84  250/ 14/ 17 1012.4F
TRIDENT PIER               77                 1015.0
28.4N   80.5W                 79                N/A     1/11
27.5N   80.2W                 76                N/A     1/10

$$
FLZ050-056-061-142-242-148-248-149-249-151-251-155-255-
160-260-301000-
WEST CENTRAL FLORIDA

CITY           SKY/WX    TMP DP  RH WIND       PRES   REMARKS
CRYSTAL RIVER  FAIR      73  73 100 CALM      29.95F
INVERNESS      FAIR      72  72 100 CALM      29.96F FOG
BROOKSVILLE    PTCLDY    74  73  97 CALM      29.97F FOG
ZEPHYRHILLS    FAIR      68  68 100 CALM      29.97F
CLEARWATER     CLEAR     75  74  96 CALM      29.96S
TAMPA INTL     CLOUDY    77  74  90 CALM      29.97S
TAMPA EXEC     CLEAR     75  73  94 CALM      29.97F FOG
PLANT CITY     CLEAR     77  77 100 CALM      29.98F
MACDILL AFB    CLEAR     75  75 100 SW1       29.96F
PETER O KNIGHT CLEAR     79  77  94 CALM      29.96F
ST PETERSBURG  CLEAR     79  75  87 CALM      29.95S
SARASOTA       PTCLDY    77  75  93 E5        29.95F
VENICE         CLOUDY    82  77  83 NW6       29.98S

STATION/POSITION SKY/WX   TEMP    WIND        PRES    WAVE   SWELL
                          AIR SEA DIR/SP/G            HT/PER HT/PER
                          (F)     (DEG/KT/KT) (MB)    (FT/S) (FT/S)
CEDAR KEY                  80      30/  2/  3 1014.3F
28.5N   84.5W              83 85  230/ 10/ 12 1014.1F   2/ 4   2/ 5
27.3N   84.2W                 84                N/A     2/ 4
CLEARWATER BEACH           82                 1014.7
MIDDLE TAMPA BAY           81                 1015.1
VENICE                     82 85  280/  6/  7 1014.5F

$$
FLZ066-069-070-075>078-162-262-165-265-301000-
SOUTHWEST FLORIDA AND KEYS

CITY           SKY/WX    TMP DP  RH WIND       PRES   REMARKS
PUNTA GORDA    PTCLDY    77  77 100 S3        29.99F
FT MYERS       MOCLDY    77  75  93 CALM      29.97F
SOUTHWEST INTL MOCLDY    77  75  93 CALM      29.98F
NAPLES         CLOUDY    83  77  82 W3        29.98F
MARCO ISLAND   MOSUNNY   79  72  78 CALM      29.99S
MARATHON       MOCLDY    85  77  77 VRB3      30.00R HX  95
KEY WEST NAS   CLOUDY    84  76  76 CALM      30.00S
KEY WEST INTL  MOCLDY    83  77  82 CALM      30.01S

STATION/POSITION SKY/WX   TEMP    WIND        PRES    WAVE   SWELL
                          AIR SEA DIR/SP/G            HT/PER HT/PER
                          (F)     (DEG/KT/KT) (MB)    (FT/S) (FT/S)
VENICE                     82 85  280/  6/  7 1014.5F
NAPLES                                        1016.6
26.0N   85.6W              84 84  250/ 10/ 12 1014.8F   1/ 8   2/ 8
DRY TORTUGAS               83     300/  3/  3 1016.0S
NW FL BAY                  85     310/  5/  6 1015.8
SAND KEY                   84     270/  3/  4 1016.0S
SOMBRERO KEY               85     240/  6/  8 1016.6R
LONG KEY                   86 89  210/  5/  6 1016.8R
MOLASSES REEF              85 87  250/  2/  3 1016.0R

$$
FLZ067-068-071>074-168-172>174-301000-
SOUTHEAST FLORIDA

CITY           SKY/WX    TMP DP  RH WIND       PRES   REMARKS
W PALM BEACH   CLOUDY    78  74  87 W6        30.00R
FT LAUDER-EXEC CLOUDY    81  75  82 SW5       29.99S
FT LAUDERDALE  CLOUDY    81  76  84 W6        29.98F
POMPANO BEACH  CLOUDY    81  75  82 SW5       29.99S
PEMBROKE PINES CLOUDY    80  75  84 W5        30.00F
OPA LOCKA      CLOUDY    80  76  87 SW3       30.00S
MIAMI          MOCLDY    81  75  82 CALM      30.00S
WEST KENDALL   MOCLDY    77  76  96 W3        30.01R
HOMESTEAD      MOCLDY    78  76  95 W2        30.00S

STATION/POSITION SKY/WX   TEMP    WIND        PRES    WAVE   SWELL
                          AIR SEA DIR/SP/G            HT/PER HT/PER
                          (F)     (DEG/KT/KT) (MB)    (FT/S) (FT/S)
PORT EVERGLADES            81     260/  6/  8 1015.4F
VIRGINIA KEY               82                 1015.5
LAKE WORTH                 80                 1015.1
SETTLEMENT POINT           83     270/ 12/ 14 1015.9R

$$



USA.gov is the U.S. government's official web portal to all federal, state and local government web resources and services.